Regional Weather Roundup
Issued by NWS Charleston, WV

Home | Current Version | Previous Version | Graphics & Text | Print | Product List | Glossary On
Versions: 1 2 3 4 5 6 7 8 9 10 11 12 13 14 15 16 17 18 19 20 21 22 23 24 25 26 27 28
000
ASUS41 KRLX 171410
RWRRLX
West Virginia Regional Weather Roundup
National Weather Service Charleston WV
1000 AM EDT THU APR 17 2014

Note: "fair" indicates few or no clouds below 12,000 feet with no
significant weather and/or obstructions to visibility.

WVZ003-171500-
Northern Panhandle of West Virginia

CITY           SKY/WX    TMP DP  RH WIND       PRES   REMARKS
WHEELING       MOSUNNY   46  20  35 SE8       30.44R
$$

WVZ009-171500-
Northwest West Virginia

CITY           SKY/WX    TMP DP  RH WIND       PRES   REMARKS
PARKERSBURG    MOSUNNY   49  21  33 S8        30.46S
$$

WVZ006-171500-
Western West Virginia

CITY           SKY/WX    TMP DP  RH WIND       PRES   REMARKS
HUNTINGTON     SUNNY     51  24  34 S12       30.42R
$$

WVZ015-171500-
West Central West Virginia

CITY           SKY/WX    TMP DP  RH WIND       PRES   REMARKS
CHARLESTON     MOSUNNY   51  20  29 S9        30.44R
$$

WVZ031-171500-
North Central West Virginia

CITY           SKY/WX    TMP DP  RH WIND       PRES   REMARKS
CLARKSBURG     PTSUNNY   48  19  31 SE3       30.46R
MORGANTOWN     PTSUNNY   50  19  29 SE7       30.47R
$$

WVZ035-042-045-171500-
South Central West Virginia

CITY           SKY/WX    TMP DP  RH WIND       PRES   REMARKS
BECKLEY        SUNNY     42  18  37 SE9G18    30.47R
BLUEFIELD      SUNNY     43  19  38 VRB7      30.46R
LEWISBURG      SUNNY     39  17  39 E5        30.51S
$$

WVZ047-171500-
Northern Mountains of West Virginia

CITY           SKY/WX    TMP DP  RH WIND       PRES   REMARKS
ELKINS         SUNNY     46  17  31 VRB3      30.47S
$$

WVZ052-171500-
Eastern Panhandle of West Virginia

CITY           SKY/WX    TMP DP  RH WIND       PRES   REMARKS
MARTINSBURG    SUNNY     45  27  49 SE9       30.64R
PETERSBURG     SUNNY     44  32  63 CALM      30.59S
$$



USA.gov is the U.S. government's official web portal to all federal, state and local government web resources and services.